Regional Weather Roundup
Issued by NWS Kansas City/Pleasant Hill, MO

Home | Current Version | Previous Version | Graphics & Text | Print | Product List | Glossary Off
Versions: 1 2 3 4 5 6 7 8 9 10 11 12 13 14 15 16 17 18 19 20 21 22 23 24 25 26 27 28 29 30 31 32 33 34 35 36 37 38 39 40 41 42 43 44 45 46 47 48 49 50

000
ASUS43 KEAX 271910
RWREAX

WEATHER ROUNDUP FOR EASTERN KANSAS AND NORTHWEST MISSOURI
NATIONAL WEATHER SERVICE KANSAS CITY/PLEASANT HILL MO
200 PM CDT MON JUL 27 2015

KSZ040-057-103>105-MOZ028-029-037-043-272000-
...KANSAS CITY METROPOLITAN AREA...

CITY           SKY/WX    TMP DP  RH WIND       PRES   REMARKS
K.C. INTL      CLOUDY    85  76  74 S6        29.92F HX  94
K.C. DOWNTOWN  CLOUDY    89  75  63 S6        29.91F HX  99
LEES SUMMIT    PTSUNNY   88  72  58 SW7       29.94F HX  94
OLATHE - IXD   CLOUDY    89  75  63 S7        29.94F HX  99
OLATHE - OJC   CLOUDY    87  77  72 S3        29.93F HX  99
LAWRENCE       CLOUDY    85  77  77 E5        29.91F HX  95

$$

MOZ001>008-011>017-020>025-030>033-038>040-044>046-053-054-272000-
...NORTHERN AND CENTRAL MISSOURI...

CITY           SKY/WX    TMP DP  RH WIND       PRES   REMARKS
ST. JOSEPH     CLOUDY    85  78  80 S7        29.91S HX  96
MOSBY          CLOUDY    90  73  58 S6        29.91F HX  98
WARRENSBURG    MOSUNNY   90  73  58 S6        29.93S HX  98
WHITEMAN AFB   MOSUNNY   94  74  52 SW6       29.92F HX 103
CLINTON          N/A     93  77  59 SW5       29.94S HX 107
SEDALIA        MOSUNNY   93  74  53 S8        29.95F HX 103
WARSAW         NOT AVBL
CHILLICOTHE      N/A     92  78  63 S9        29.92F HX 107
KIRKSVILLE     PTSUNNY   89  78  70 SE9       29.95F HX 103

$$

MOZ041-047>049-056>058-063>065-088>090-097-272000-
...EASTERN AND SOUTHERN MISSOURI...

CITY           SKY/WX    TMP DP  RH WIND       PRES   REMARKS
ST. LOUIS INTL PTSUNNY   95  76  53 CALM      29.93F HX 108
SPIRIT OF STL  MOSUNNY   94  79  61 W5        29.91F HX 111
COLUMBIA       MOSUNNY   91  77  63 SW6       29.94F HX 104
JEFFERSON CITY PTSUNNY   91  73  55 SW3       29.92F HX  99
ROLLA          MOSUNNY   91  74  57 S3        29.95F HX 100
OSAGE BEACH    MOSUNNY   93  73  52 CALM      29.95S HX 102
SPRINGFIELD    SUNNY     93  72  50 SW6       29.96F HX 101
BRANSON        MOSUNNY   93  75  55 CALM      29.99F HX 104
JOPLIN         MOSUNNY   95  74  50 SW9       29.94F HX 105
WEST PLAINS    PTSUNNY   93  75  55 VRB3      29.99F HX 104

$$

IAZ060-094-KSZ022-034>040-054-083-096-NEZ052-066-093-272000-
...KANSAS...SOUTHEAST NEBRASKA AND IOWA...

CITY           SKY/WX    TMP DP  RH WIND       PRES   REMARKS
TOPEKA         CLOUDY    90  79  70 E7        29.90F HX 106
MANHATTAN      MOSUNNY   88  75  65 SE8       29.88F HX  97
EMPORIA        SUNNY     97  68  38 S16G22    29.90F HX 102
CHANUTE        SUNNY     94  71  47 SW15      29.92F HX 101
WICHITA        PTSUNNY   96  68  39 S21G28    29.89F HX 101
OMAHA          CLOUDY    85  77  77 SE12      29.90S HX  95
LINCOLN        PTSUNNY   88  69  53 S10       29.90F HX  92
FALLS CITY     CLOUDY    83  77  82 SE3       29.91S HX  92
LAMONI         CLOUDY    90  79  70 S9        29.92F HX 106
DES MOINES     TSTM      72  69  90 N12       29.98S

$$




USA.gov is the U.S. government's official web portal to all federal, state and local government web resources and services.